map of AZR home
AZR - Airport
Location
City:  Adrar, Adrar, Algeria
Name:Touat-Cheikh Sidi Mohamed Belkebir Airport
ICAO:DAUA
IATA:AZR

Details
Type:Airport (Aerodrome, Airfield)
Use:Public/Civil, International (customs port of entry)
Latitude:2750'21"N (27.839167)
Longitude:011'07"W (-0.185277)
Elevation:919 ft (280 m)
Variation:0.04W (WMM2015 magnetic declination)
0.09 annual change
Runways:1
Longest:9843 × 148 ft (3000 × 45 m)

Time
Time Zone:UTC+1
Local Time:

Weather
METAR:DAUA 212300Z 13009KT 7000 NSC 33/// Q1010
TAF:DAUA 211700Z 2118/2218 16012KT 6000 NSC PROB30
TEMPO 2118/2122 3000 HZ
BECMG 2120/2123 28010KT
BECMG 2202/2206 14012KT PROB40
TEMPO 2204/2212 14024KT 3000 DRSA

Related Locations
Nearby:
Farthest:ONU: 11927 mi / 19194 km
Ono-I-Lau, FJ

Find:

   beyond  
but within

Other Information
Maps:
NOTAMs:
Links:
Sources:

  
  • flag of Algeria
  

Sectional Chart

Flight Planning
at skyvector.com

Satellite Image

Google Maps Satellite view

 

Copyright © 2004-2018 Karl L. Swartz. All rights reserved.
The Great Circle Mapper name and logo are trademarks of the Great Circle Mapper.
All other trademarks mentioned herein belong to their respective owners.
Please see credits for attibutions and further copyright information.

  Follow gcmap on Facebook Follow gcmap on Twitter Follow gcmap on Google+ GCmap on LinkedIn

hCard Microformat

Geo Microformat